Tracking 31027 objects as of 19-Jul-2025
HD Live streaming from Space Station
objects crossing your sky now

PALAPA B4

Track PALAPA B4 now!
PALAPA B4 is classified as:


NORAD ID: 21964
Int'l Code: 1992-027A
Perigee: 35,881.5 km
Apogee: 35,899.1 km
Inclination: 12.9 °
Period: 1,441.0 minutes
Semi major axis: 42261 km
RCS: 12.5892 m2 (large)
Launch date: May 14, 1992
Source: Indonesia (INDO)
Launch site: AIR FORCE EASTERN TEST RANGE (AFETR)

Palapa B-4 was an Indonesian communications spacecraft launched by a Delta rocket.
Your satellite tracking list
SL-8 DEB
Track 1 satellite(s)




NASA's NSSDC Master Catalog

Two Line Element Set (TLE):
1 21964U 92027A   25199.05044800 -.00000031  00000-0  00000-0 0  9994
2 21964  12.9014  19.6915 0002085  71.5025 297.3222  0.99928329 43855
Source of the keplerian elements: AFSPC